Hermiston, OR

2:34 PM PST on February 23, 2017 (GMT -0800)
Hermiston Municipal

Weather History for KHRI - March, 2013

Change the Weather History Date:

Saturday, March 2, 2013

  Actual Average Record
Temperature  
Mean Temperature 48 °F 41 °F  
Max Temperature 57 °F 53 °F 73 °F (1936)
Min Temperature 39 °F 29 °F 10 °F (1993)
Degree Days  
Heating Degree Days 17    
Moisture  
Dew Point 42 °F    
Average Humidity 75    
Maximum Humidity 93    
Minimum Humidity 60    
Precipitation  
Precipitation 0.00 in 0.04 in 0.36 in (1920)
Month to date precipitation 0.08  
Year to date precipitation 2.36  
Sea Level Pressure  
Sea Level Pressure 30.12 in    
Wind  
Wind Speed 4 mph (SW)    
Max Wind Speed 18 mph    
Max Gust Speed 25 mph    
Visibility 10 miles    
Events Rain    
T = Trace of Precipitation, MM = Missing Value Source: NWS Daily Summary

Daily Weather History Graph

Daily Weather History Graph

Search for Another Location

Airport or City:

Trip Planner

Search our weather history database for the weather conditions in past years. The results will help you decide how hot, cold, wet, or windy it might be!

Date:

Astronomy

Mar. 02, 2013 Rise Set
Actual Time 6:33 AM PST 5:45 PM PST
Civil Twilight 6:03 AM PST 6:15 PM PST
Nautical Twilight 5:29 AM PST 6:49 PM PST
Astronomical Twilight 4:54 AM PST 7:24 PM PST
Moon 11:50 PM PST (3/2) 8:46 AM PST (3/2)
Length of Visible Light 12h 12m
Length of Day
11h 12m
Waning Gibbous, 73% of the Moon is Illuminated
Mar 2
Waning Gibbous
Mar 4
Last Quarter
Mar 11
New
Mar 19
First Quarter
Mar 27
Full

Hourly Weather History & Observations

Time (PST) Temp. Windchill Dew Point Humidity Pressure Visibility Wind Dir Wind Speed Gust Speed Precip Events Conditions
12:53 AM 44.1 °F - 41.0 °F 89% 30.27 in 10.0 mi Calm Calm - N/A   Clear
1:53 AM 39.9 °F 35.8 °F 37.9 °F 93% 30.27 in 10.0 mi South 5.8 mph - N/A   Clear
3:53 AM 41.0 °F 39.0 °F 39.0 °F 93% 30.23 in 10.0 mi SSE 3.5 mph - N/A   Clear
4:53 AM 41.0 °F - 39.0 °F 93% 30.21 in 10.0 mi Calm Calm - N/A   Clear
5:53 AM 41.0 °F - 39.0 °F 93% 30.21 in 10.0 mi Calm Calm - N/A   Clear
6:53 AM 41.0 °F - 39.0 °F 93% 30.20 in 10.0 mi Calm Calm - N/A   Clear
7:53 AM 45.0 °F - 43.0 °F 93% 30.19 in 10.0 mi Calm Calm - N/A   Clear
8:53 AM 48.9 °F - 43.0 °F 80% 30.17 in 10.0 mi Calm Calm - N/A   Clear
9:53 AM 50.0 °F - 43.0 °F 77% 30.17 in 10.0 mi Calm Calm - N/A   Clear
10:53 AM 53.1 °F - 44.1 °F 71% 30.14 in 10.0 mi SSE 4.6 mph - N/A   Partly Cloudy
11:53 AM 55.0 °F - 46.0 °F 72% 30.13 in 10.0 mi NNW 3.5 mph - N/A   Clear
12:53 PM 55.9 °F - 46.0 °F 69% 30.09 in 10.0 mi Calm Calm - N/A   Scattered Clouds
1:53 PM 57.9 °F - 46.0 °F 65% 30.07 in 10.0 mi Calm Calm - N/A   Scattered Clouds
2:53 PM 57.9 °F - 44.1 °F 60% 30.06 in 10.0 mi WSW 10.4 mph - N/A   Overcast
3:53 PM 57.9 °F - 45.0 °F 62% 30.05 in 10.0 mi SSW 8.1 mph - N/A   Overcast
4:53 PM 57.0 °F - 44.1 °F 62% 30.05 in 10.0 mi SW 8.1 mph - N/A   Overcast
5:53 PM 55.9 °F - 43.0 °F 62% 30.04 in 10.0 mi WSW 15.0 mph 23.0 mph N/A   Overcast
6:53 PM 54.0 °F - 42.1 °F 64% 30.05 in 10.0 mi WSW 8.1 mph - N/A   Overcast
7:53 PM 53.1 °F - 42.1 °F 66% 30.03 in 10.0 mi SSW 15.0 mph 20.7 mph N/A   Overcast
8:53 PM 51.1 °F - 39.9 °F 66% 30.04 in 10.0 mi SW 6.9 mph - N/A   Overcast
9:53 PM 51.1 °F - 39.9 °F 66% 30.04 in 10.0 mi WSW 12.7 mph - N/A   Scattered Clouds
10:53 PM 51.1 °F - 39.9 °F 66% 30.04 in 10.0 mi WSW 16.1 mph - N/A   Clear
11:53 PM 50.0 °F - 39.0 °F 66% 30.05 in 10.0 mi WSW 18.4 mph 25.3 mph 0.00 in Rain Light Rain